Regional Weather Roundup
Issued by NWS

Home | Current Version | Previous Version | Graphics & Text | Print | Product List | Glossary On
Versions: 1 2 3 4 5 6 7 8 9 10 11 12 13 14 15 16 17 18 19 20 21 22 23 24 25 26 27 28 29 30 31 32 33 34 35 36 37 38 39 40 41 42 43 44 45 46 47 48 49 50
817
ASUS43 KMKX 181721
RWRWI

WISCONSIN REGIONAL WEATHER ROUNDUP
NATIONAL WEATHER SERVICE MILWAUKEE/SULLIVAN WI
1100 AM CST WED JAN 18 2017

NOTE: "FAIR" INDICATES FEW OR NO CLOUDS BELOW 12,000 FEET WITH NO
SIGNIFICANT WEATHER AND/OR OBSTRUCTIONS TO VISIBILITY.

WIZ001-002-006>008-014>016-023>028-181800-
NORTHWEST WISCONSIN

CITY           SKY/WX    TMP DP  RH WIND       PRES   REMARKS
SUPERIOR ARPT  SUNNY     34  26  74 SW12      29.82S WCI  25
ASHLAND        SUNNY     37  27  67 SW16      29.82F WCI  28
HAYWARD        SUNNY     33  25  72 S13       29.85F WCI  24
SIREN          SUNNY     36  27  71 SW12      29.86F WCI  27
CUMBERLAND     SUNNY     32  27  80 SW13      29.89R WCI  22
RICE LAKE      SUNNY     32  27  81 S9        29.91R WCI  24
CHETEK         NOT AVBL
LADYSMITH      SUNNY     33  28  82 S9        29.91F WCI  25
EAU CLAIRE     SUNNY     34  28  79 S15       29.91F WCI  24
MENOMONIE      SUNNY     33  28  80 MISG      29.91F
NEW RICHMOND   SUNNY     35  28  76 SW15      29.89F WCI  25
OSCEOLA        SUNNY     35  28  76 SW8       29.92S WCI  29
$$

WIZ003>005-009-010-017-018-181800-
NORTH CENTRAL WISCONSIN

CITY           SKY/WX    TMP DP  RH WIND       PRES   REMARKS
MANITOWISH WTR SUNNY     33  28  79 SW12      29.84S WCI  25
ARBOR VITAE    SUNNY     37  30  78 SW12      29.85F WCI  29
WOODRUFF       SUNNY     37  30  78 SW12      29.85F WCI  29
RHINELANDER    SUNNY     34  29  82 SW14G24   29.88F WCI  25
EAGLE RIVER    SUNNY     34  26  73 SW15G23   29.85F WCI  24
LAND O LAKES   SUNNY     37  27  67 SW10G20   29.85S WCI  29
PHILLIPS       SUNNY     32  28  83 SW7       29.86F WCI  26
TOMAHAWK       SUNNY     33  28  80 S5        29.90F WCI  29
MEDFORD        CLOUDY    30  28  90 S9        29.90S WCI  22
MERRILL        CLOUDY    33  30  87 SW7         N/A  WCI  27
$$

WIZ029-030-035-036-043>047-181800-
CENTRAL WISCONSIN

CITY           SKY/WX    TMP DP  RH WIND       PRES   REMARKS
WAUSAU         CLOUDY    31  29  92 S8        29.91F WCI  23
MOSINEE        PTSUNNY   30  30 100 S7        29.95F WCI  23
MARSHFIELD     SUNNY     31  29  92 SW8       29.92F WCI  23
STEVENS POINT  CLOUDY    31  31  98 S10       29.96F WCI  22
WAUPACA        MOSUNNY   38  31  77 CALM      29.99F
WAUTOMA        MOSUNNY   37  34  89 SW8       29.99F WCI  31
WISC RAPIDS    MOSUNNY   32  32 100 SW7       29.96F WCI  26
CAMP DOUGLAS   SUNNY     36  30  80 S6        29.96F WCI  31
$$

WIZ011>013-019>022-031-037>040-048>050-181800-
NORTHEAST WISCONSIN

CITY           SKY/WX    TMP DP  RH WIND       PRES   REMARKS
ANTIGO         CLOUDY    30  30 100 SW8       29.91F WCI  22
SHAWANO        CLOUDY    36  34  95 SW8       29.98F WCI  29
OCONTO         CLOUDY    33  31  93 SW8       29.99  WCI  26
STURGEON BAY   CLOUDY    33  32  96 SW12G20   29.98F WCI  24
GREEN BAY      CLOUDY    35  33  92 SW12      30.00S WCI  27
MANITOWOC      CLOUDY    35  33  92 SW10      30.01F WCI  27
APPLETON       CLOUDY    32  32 100 SW13      29.98F WCI  22
CLINTONVILLE   CLOUDY    34  32  93 SW8       29.97F WCI  27
OSHKOSH        CLOUDY    33  30  88 SW8       30.00F WCI  26
$$

WIZ032>034-041-042-053>061-181800-
SOUTHWEST WISCONSIN

CITY           SKY/WX    TMP DP  RH WIND       PRES   REMARKS
LA CROSSE      SUNNY     35  29  78 S14       29.99S WCI  26
SPARTA         SUNNY     35  30  80 S6        29.98S WCI  30
VIROQUA        CLOUDY    31  31 100 SW12      29.99R WCI  22
BOSCOBEL       CLOUDY    34  29  82 SW10G21   30.06S WCI  26
PRAIRIE DU CHI CLOUDY    32  29  89 S7        30.07S WCI  26
PLATTEVILLE    CLOUDY    31  31 100 SW20      30.08R WCI  19
$$

WIZ056-057-062-063-064-067-068-181800-
SOUTH CENTRAL WISCONSIN

CITY           SKY/WX    TMP DP  RH WIND       PRES   REMARKS
REEDSBURG      CLOUDY    33  32  99 S8        30.00F WCI  25
BARABOO/DELLS  SUNNY     35  32  88 SW7       29.99F WCI  29
LONE ROCK      CLOUDY    34  30  85 S10       30.04F WCI  26
MINERAL POINT  CLOUDY    32  32 100 SW12G20   30.04S FOG     WCI  23
MADISON        CLOUDY    33  31  92 S12       30.02F WCI  24
MIDDLETON      CLOUDY    34  34 100 SW12      30.03F WCI  25
WATERTOWN      CLOUDY    33  33 100 S9        30.03F WCI  26
MONROE         CLOUDY    32  32 100 S17       30.05S FOG     WCI  21
JANESVILLE     CLOUDY    36  36 100 SW9       30.07F WCI  29
$$

WIZ051-052-058>065-066-070>072-181800-
SOUTHEAST WISCONSIN

CITY           SKY/WX    TMP DP  RH WIND       PRES   REMARKS
MILWAUKEE      CLOUDY    36  32  85 SW13      30.05F WCI  27
WAUKESHA       CLOUDY    30  30 100 SW8       30.05F WCI  23
MILWAUKEE/TIMM PTSUNNY   36  32  87 W6        30.05F WCI  31
RACINE         CLOUDY    35  33  92 SW8       30.07F WCI  29
KENOSHA        CLOUDY    34  33  96 SW10      30.07F FOG     WCI  26
FOND DU LAC    CLOUDY    34  30  85 SW10      30.00F WCI  26
SHEBOYGAN      CLOUDY    34  31  88 SW13      30.02F WCI  25
WEST BEND      CLOUDY    34  32  93 W8        30.01F WCI  27
JUNEAU         CLOUDY    32  31  99 S10       30.02F WCI  23
$$

LSZ147-162-181800-
LAKE SUPERIOR

STATION/POSITION TIME  TEMP    WIND        PRES    WAVE
                       AIR SEA DIR/SP/G            HT/PER
                 (UTC) (F)     (DEG/KT/KT) (MB)    (FT/S)
DEVILS ISLAND    1700   33     240/ 16/ 19 1009.9R
PORT WING        1630   35     210/ 11/ 15 1010.2S
SAXON HARBOR     1640   39     210/  9/ 19 1009.8S
$$

LMZ867-665-643>646-181800-
LAKE MICHIGAN

STATION/POSITION TIME  TEMP    WIND        PRES    WAVE
                       AIR SEA DIR/SP/G            HT/PER
                 (UTC) (F)     (DEG/KT/KT) (MB)    (FT/S)
NORTHPORT PIER   1630   33     230/  8/ 14 1014.9R
SISTER BAY       1520   32     210/ 16/ 19   N/A
ALGOMA LAKESHORE 1609          260/ 10/ 14   N/A
KEWAUNEE LAKESHO 1654   34     240/  6/ 14 1015.5F
SHEBOYGAN LAKESH 1700   34     230/ 13/ 15 1016.9F
PORT WASHINGTON  1640   36     240/ 10/ 13 1017.9F
MILWAUKEE LAKESH 1700   35     240/  9/ 10   N/A
KENOSHA   LAKESH 1700   34     230/ 10/ 12 1018.6
$$

TC  - TEMPERATURE IN CELSIUS
VSB - VISIBILITY IN STATUTE MILES
WCI - WIND CHILL INDEX
HX  - HEAT INDEX





USA.gov is the U.S. government's official web portal to all federal, state and local government web resources and services.